When you browse on this site, cookies collect data to enhance your experience and personalize the content and advertising you see.
Visit our Privacy Policy to learn more. By continuing to use the site, you agree to this use of cookies and data.
  • In Hungary
  • List of Countries
  • For 7 days
  • Water Temperature
  • Weather Map
  • News
  • Weather Widgets
  • user-avatar
    Login

    Hourly Weather Chabowo

    Today, 30 March, Monday

    Time Temperature Precipitation Wind Pressure Humidity
    00:00 -3°C° 0 mm 2 mps 769 mmHg 57%
    01:00 -4°C° 0 mm 3 mps 769 mmHg 56%
    02:00 -4°C° 0 mm 3 mps 768 mmHg 60%
    03:00 -4°C° 0 mm 3 mps 768 mmHg 64%
    04:00 -4°C° 0 mm 3 mps 767 mmHg 68%
    05:00 -2°C° 0 mm 3 mps 767 mmHg 66%
    06:00 -2°C° 0 mm 3 mps 767 mmHg 63%
    07:00 -2°C° 0 mm 4 mps 767 mmHg 61%
    08:00 -1°C° 0 mm 4 mps 766 mmHg 55%
    09:00 0°C° 0 mm 4 mps 766 mmHg 49%
    10:00 +3°C° 0 mm 4 mps 766 mmHg 43%
    11:00 +2°C° 0 mm 5 mps 765 mmHg 47%
    12:00 +2°C° 0 mm 5 mps 765 mmHg 52%
    13:00 +3°C° 0 mm 5 mps 765 mmHg 56%
    14:00 +3°C° 0.2 mm 5 mps 764 mmHg 60%
    15:00 +4°C° 0.2 mm 4 mps 764 mmHg 65%
    16:00 +4°C° 0.2 mm 4 mps 764 mmHg 69%
    17:00 +1°C° 0.4 mm 4 mps 764 mmHg 76%
    18:00 0°C° 0.4 mm 4 mps 765 mmHg 82%
    19:00 -2°C° 0.4 mm 4 mps 765 mmHg 89%
    20:00 -2°C° 0 mm 4 mps 765 mmHg 88%
    21:00 -2°C° 0 mm 3 mps 766 mmHg 87%
    22:00 -4°C° 0 mm 3 mps 766 mmHg 87%
    23:00 -4°C° 0 mm 3 mps 767 mmHg 83%

    Tomorrow, 31 March, Tuesday

    Time Temperature Precipitation Wind Pressure Humidity
    00:00 -4°C° 0 mm 3 mps 767 mmHg 80%
    01:00 -4°C° 0 mm 3 mps 768 mmHg 76%
    02:00 -5°C° 0 mm 3 mps 768 mmHg 75%
    03:00 -5°C° 0 mm 3 mps 768 mmHg 74%
    04:00 -4°C° 0 mm 2 mps 768 mmHg 73%
    05:00 -4°C° 0 mm 3 mps 769 mmHg 70%
    06:00 -2°C° 0 mm 3 mps 769 mmHg 67%
    07:00 -2°C° 0 mm 3 mps 769 mmHg 63%
    08:00 -1°C° 0 mm 4 mps 769 mmHg 58%
    09:00 0°C° 0 mm 4 mps 769 mmHg 53%
    10:00 +1°C° 0 mm 4 mps 769 mmHg 47%
    11:00 +1°C° 0 mm 4 mps 769 mmHg 45%
    12:00 +3°C° 0 mm 4 mps 769 mmHg 43%
    13:00 +4°C° 0 mm 4 mps 769 mmHg 41%
    14:00 +3°C° 0 mm 4 mps 768 mmHg 40%
    15:00 +3°C° 0 mm 4 mps 768 mmHg 40%
    16:00 +3°C° 0 mm 4 mps 768 mmHg 39%
    17:00 +1°C° 0 mm 3 mps 767 mmHg 43%
    18:00 +1°C° 0 mm 2 mps 767 mmHg 47%
    19:00 0°C° 0 mm 1 mps 767 mmHg 51%
    20:00 0°C° 0 mm 1 mps 767 mmHg 53%
    21:00 -2°C° 0 mm 2 mps 767 mmHg 55%
    22:00 -2°C° 0 mm 3 mps 766 mmHg 56%
    23:00 -2°C° 0 mm 3 mps 766 mmHg 62%

    Day after tomorrow, 1 April, Wednesday

    Time Temperature Precipitation Wind Pressure Humidity
    00:00 -3°C° 0 mm 4 mps 765 mmHg 67%
    01:00 -3°C° 0 mm 4 mps 765 mmHg 73%
    02:00 -4°C° 0 mm 5 mps 764 mmHg 74%
    03:00 -4°C° 0 mm 5 mps 764 mmHg 74%
    04:00 -4°C° 0 mm 5 mps 763 mmHg 75%
    05:00 -2°C° 0 mm 5 mps 762 mmHg 74%
    06:00 -3°C° 0 mm 6 mps 762 mmHg 73%
    07:00 -2°C° 0 mm 6 mps 762 mmHg 72%
    08:00 -1°C° 0 mm 6 mps 761 mmHg 71%
    09:00 +2°C° 0 mm 6 mps 761 mmHg 70%
    10:00 +3°C° 0 mm 7 mps 760 mmHg 69%
    11:00 +4°C° 0 mm 7 mps 760 mmHg 69%
    12:00 +4°C° 0 mm 7 mps 760 mmHg 69%
    13:00 +5°C° 0 mm 7 mps 760 mmHg 69%
    14:00 +5°C° 0.1 mm 7 mps 759 mmHg 69%
    15:00 +5°C° 0.1 mm 6 mps 759 mmHg 69%
    16:00 +5°C° 0.1 mm 6 mps 758 mmHg 69%
    17:00 +4°C° 0.1 mm 6 mps 758 mmHg 75%
    18:00 +3°C° 0.1 mm 5 mps 758 mmHg 80%
    19:00 +3°C° 0.1 mm 4 mps 757 mmHg 85%
    20:00 +2°C° 0 mm 5 mps 757 mmHg 86%
    21:00 +2°C° 0 mm 5 mps 757 mmHg 86%
    22:00 +2°C° 0 mm 5 mps 757 mmHg 86%
    23:00 +1°C° 0 mm 5 mps 756 mmHg 86%

    2 April, Thursday

    Time Temperature Precipitation Wind Pressure Humidity
    00:00 +1°C° 0 mm 5 mps 756 mmHg 86%
    01:00 +1°C° 0 mm 6 mps 756 mmHg 86%
    02:00 +1°C° 0 mm 6 mps 755 mmHg 87%
    03:00 +1°C° 0 mm 6 mps 755 mmHg 87%
    04:00 -1°C° 0 mm 6 mps 755 mmHg 87%
    05:00 +1°C° 0 mm 6 mps 755 mmHg 88%
    06:00 +1°C° 0 mm 6 mps 755 mmHg 88%
    07:00 +1°C° 0 mm 6 mps 755 mmHg 89%
    08:00 +2°C° 0 mm 6 mps 755 mmHg 86%
    09:00 +3°C° 0 mm 7 mps 755 mmHg 82%
    10:00 +4°C° 0 mm 7 mps 754 mmHg 79%
    11:00 +4°C° 0.1 mm 7 mps 754 mmHg 76%
    12:00 +5°C° 0.1 mm 7 mps 754 mmHg 73%
    13:00 +5°C° 0.1 mm 7 mps 754 mmHg 70%
    14:00 +5°C° 0 mm 6 mps 754 mmHg 69%
    15:00 +7°C° 0 mm 6 mps 753 mmHg 69%
    16:00 +7°C° 0 mm 5 mps 753 mmHg 68%
    17:00 +6°C° 0 mm 5 mps 753 mmHg 69%
    18:00 +6°C° 0 mm 5 mps 752 mmHg 70%
    19:00 +6°C° 0 mm 5 mps 752 mmHg 71%
    20:00 +6°C° 0 mm 5 mps 752 mmHg 72%
    21:00 +4°C° 0 mm 6 mps 751 mmHg 73%
    22:00 +4°C° 0 mm 7 mps 751 mmHg 73%
    23:00 +4°C° 0 mm 7 mps 750 mmHg 76%

    3 April, Friday

    Time Temperature Precipitation Wind Pressure Humidity
    00:00 +3°C° 0 mm 7 mps 750 mmHg 79%
    01:00 +3°C° 0 mm 7 mps 749 mmHg 82%
    02:00 +3°C° 0.1 mm 7 mps 749 mmHg 83%
    03:00 +3°C° 0.1 mm 7 mps 749 mmHg 83%
    04:00 +3°C° 0.1 mm 7 mps 749 mmHg 83%
    05:00 +3°C° 0.4 mm 7 mps 749 mmHg 80%
    06:00 +2°C° 0.4 mm 7 mps 750 mmHg 78%
    07:00 +2°C° 0.4 mm 7 mps 750 mmHg 75%
    08:00 +3°C° 0 mm 7 mps 751 mmHg 69%
    09:00 +2°C° 0 mm 8 mps 752 mmHg 63%
    10:00 +3°C° 0 mm 9 mps 752 mmHg 57%
    11:00 +5°C° 0.2 mm 9 mps 753 mmHg 53%
    12:00 +5°C° 0.2 mm 9 mps 753 mmHg 49%
    13:00 +6°C° 0.2 mm 10 mps 754 mmHg 44%
    14:00 +5°C° 0.1 mm 9 mps 755 mmHg 45%
    15:00 +5°C° 0.1 mm 9 mps 755 mmHg 45%
    16:00 +5°C° 0.1 mm 9 mps 756 mmHg 45%
    17:00 +4°C° 0 mm 8 mps 756 mmHg 50%
    18:00 +3°C° 0 mm 6 mps 757 mmHg 54%
    19:00 +2°C° 0 mm 5 mps 757 mmHg 59%
    20:00 +1°C° 0 mm 5 mps 758 mmHg 62%
    21:00 0°C° 0 mm 5 mps 759 mmHg 66%
    22:00 0°C° 0 mm 5 mps 760 mmHg 69%
    23:00 -1°C° 0 mm 5 mps 760 mmHg 70%

    4 April, Saturday

    Time Temperature Precipitation Wind Pressure Humidity
    00:00 -1°C° 0 mm 5 mps 761 mmHg 71%
    01:00 -1°C° 0 mm 5 mps 761 mmHg 73%
    02:00 -1°C° 0 mm 5 mps 762 mmHg 74%
    03:00 -2°C° 0 mm 5 mps 763 mmHg 75%
    04:00 -2°C° 0 mm 5 mps 763 mmHg 77%
    05:00 -2°C° 0 mm 5 mps 764 mmHg 74%
    06:00 -1°C° 0 mm 5 mps 765 mmHg 72%
    07:00 -1°C° 0 mm 6 mps 766 mmHg 69%
    08:00 +1°C° 0 mm 5 mps 766 mmHg 64%
    09:00 +2°C° 0 mm 5 mps 767 mmHg 59%
    10:00 +5°C° 0 mm 5 mps 767 mmHg 53%
    11:00 +6°C° 0 mm 5 mps 768 mmHg 50%
    12:00 +7°C° 0 mm 5 mps 768 mmHg 47%
    13:00 +7°C° 0 mm 5 mps 768 mmHg 44%
    14:00 +7°C° 0 mm 4 mps 769 mmHg 44%
    15:00 +7°C° 0 mm 4 mps 769 mmHg 44%
    16:00 +8°C° 0 mm 3 mps 769 mmHg 44%
    17:00 +7°C° 0 mm 3 mps 769 mmHg 50%
    18:00 +5°C° 0 mm 2 mps 769 mmHg 56%
    19:00 +4°C° 0 mm 1 mps 770 mmHg 61%
    20:00 +3°C° 0 mm 2 mps 770 mmHg 62%
    21:00 +2°C° 0 mm 2 mps 771 mmHg 63%
    22:00 +2°C° 0 mm 2 mps 771 mmHg 64%
    23:00 +1°C° 0 mm 2 mps 771 mmHg 64%
    Show more